FW0909 Weather Reports


Display with metric or nautical units.
time (UTC)temp
F
wind
direction
speed
MPH
gust
MPH
rain 1hr
in
rain 24hr
in
rain mn
in
humidity
%
barometer
mb
20210727073433 58 332 2.0 2.0 0.00 0.20 0.00 37 997.7
20210727072925 58 169 0.0 0.0 0.00 0.20 0.00 36 997.7
20210727072418 58 145 0.0 0.0 0.00 0.20 0.00 36 997.3
20210727071911 58 160 0.0 0.0 0.00 0.20 0.00 36 997.3
20210727071402 59 132 0.0 0.0 0.00 0.20 0.00 36 997.0
20210727070855 59 151 0.0 0.0 0.00 0.20 0.00 36 997.3
20210727070348 60 144 0.0 0.0 0.00 0.20 0.00 37 997.0
20210727065839 58 124 0.0 0.0 0.00 0.20 0.00 36 997.3
20210727065332 59 146 0.0 0.0 0.00 0.20 0.00 36 997.3
20210727064824 60 135 0.0 0.0 0.00 0.20 0.00 35 997.7
20210727064317 61 150 0.0 0.0 0.00 0.20 0.00 35 997.7
20210727063809 61 155 0.0 0.0 0.00 0.20 0.00 36 997.3
20210727063302 60 141 0.0 0.0 0.00 0.20 0.00 36 997.7
20210727062753 60 153 0.0 0.0 0.00 0.20 0.00 36 997.7
20210727062246 59 146 0.0 0.0 0.00 0.20 0.00 36 997.7
20210727061739 59 135 0.0 0.0 0.00 0.20 0.00 35 997.7
20210727061231 59 141 0.0 0.0 0.00 0.20 0.00 36 997.7
20210727060723 59 159 0.0 0.0 0.00 0.20 0.00 35 997.7
20210727060215 60 149 0.0 0.0 0.00 0.20 0.00 34 997.7
20210727055708 60 169 0.0 0.0 0.00 0.20 0.00 32 997.7
20210727055159 61 144 0.0 0.0 0.00 0.20 0.00 31 997.3
20210727054652 62 190 0.0 0.0 0.00 0.20 0.00 30 997.3
20210727054144 62 167 0.0 2.0 0.00 0.20 0.00 29 997.3
20210727053636 62 187 0.0 2.0 0.00 0.20 0.00 30 997.7
20210727053129 61 154 0.0 8.0 0.00 0.20 0.00 35 997.3
20210727052621 60 127 0.0 8.0 0.00 0.20 0.00 32 997.7
20210727052113 60 177 0.0 0.0 0.00 0.20 0.00 34 997.3
20210727051605 59 157 0.0 0.0 0.00 0.20 0.00 32 997.7
20210727051057 61 151 0.0 0.0 0.00 0.20 0.00 33 997.3
20210727050550 60 142 0.0 0.0 0.00 0.20 0.00 34 997.7
20210727050042 60 144 0.0 0.0 0.00 0.20 0.00 35 997.3
20210727045534 59 153 0.0 0.0 0.00 0.20 0.00 32 997.3
20210727045026 60 156 0.0 0.0 0.00 0.20 0.00 32 997.3
20210727044518 61 128 0.0 2.0 0.00 0.20 0.00 31 997.3
20210727044011 61 155 0.0 2.0 0.00 0.20 0.00 32 997.3
20210727043503 61 150 0.0 0.0 0.00 0.20 0.00 32 997.0
20210727042956 61 170 0.0 0.0 0.00 0.20 0.00 31 997.0
20210727042447 61 157 0.0 0.0 0.00 0.20 0.00 31 997.0
20210727041940 62 150 0.0 0.0 0.00 0.20 0.00 28 997.3
20210727041433 62 178 0.0 2.0 0.00 0.20 0.00 27 997.0
20210727040924 62 166 0.0 2.0 0.00 0.20 0.00 27 997.0
20210727040417 62 156 0.0 5.0 0.00 0.20 0.00 27 997.0
20210727035909 62 164 0.0 5.0 0.00 0.20 0.20 26 997.0
20210727035401 62 144 0.0 2.0 0.00 0.20 0.20 27 997.0
20210727034853 62 164 0.0 0.0 0.00 0.20 0.20 29 996.7
20210727034346 62 151 0.0 2.0 0.00 0.20 0.20 27 997.0
20210727033838 62 162 0.0 2.0 0.00 0.20 0.20 26 996.7
20210727033331 62 161 0.0 2.0 0.00 0.20 0.20 28 996.7
20210727032822 63 151 0.0 2.0 0.00 0.20 0.20 25 997.0
20210727032315 62 151 0.0 0.0 0.00 0.20 0.20 27 996.7
20210727031807 62 155 0.0 2.0 0.00 0.20 0.20 27 996.7
20210727031300 63 186 0.0 2.0 0.00 0.20 0.20 26 996.7
20210727030751 62 141 0.0 2.0 0.00 0.20 0.20 30 996.7
20210727030244 61 153 0.0 0.0 0.00 0.20 0.20 32 996.7
20210727025736 61 149 0.0 0.0 0.00 0.20 0.20 31 996.7
20210727025228 62 148 0.0 0.0 0.00 0.20 0.20 29 996.7
20210727024720 62 150 0.0 0.0 0.00 0.20 0.20 28 996.7
20210727024213 62 154 0.0 0.0 0.00 0.20 0.20 27 996.7
20210727023705 62 153 0.0 0.0 0.00 0.20 0.20 25 996.7
20210727023157 62 151 0.0 2.0 0.00 0.20 0.20 25 996.7
20210727022650 63 157 0.0 2.0 0.00 0.20 0.20 25 996.7
20210727022143 63 148 0.0 2.0 0.00 0.20 0.20 24 996.3
20210727021634 63 150 0.0 0.0 0.00 0.20 0.20 24 996.3
20210727021127 63 160 0.0 0.0 0.00 0.20 0.20 25 996.3
20210727020619 63 147 0.0 0.0 0.00 0.20 0.20 23 996.3
20210727020111 63 159 0.0 0.0 0.00 0.20 0.20 22 996.7
20210727015604 63 153 0.0 0.0 0.00 0.20 0.20 23 996.7
20210727015055 63 160 0.0 0.0 0.00 0.20 0.20 25 996.3
20210727014548 63 162 0.0 2.0 0.00 0.20 0.20 26 996.3
20210727014040 63 157 0.0 2.0 0.00 0.20 0.20 23 996.3
20210727013532 64 154 1.0 2.0 0.00 0.20 0.20 22 996.3
20210727013024 63 151 0.0 2.0 0.00 0.20 0.20 23 996.7
20210727012517 63 164 0.0 0.0 0.00 0.20 0.20 25 996.3
20210727012009 63 166 0.0 0.0 0.00 0.20 0.20 26 996.0
20210727011501 64 162 0.0 0.0 0.00 0.20 0.20 24 996.0
20210727010953 64 142 0.0 0.0 0.00 0.20 0.20 26 996.3
20210727010446 63 132 0.0 0.0 0.00 0.20 0.20 26 996.0
20210727005938 63 139 0.0 0.0 0.00 0.20 0.20 25 996.0
20210727005430 64 137 0.0 2.0 0.00 0.20 0.20 24 996.0
20210727004923 65 134 0.0 2.0 0.00 0.20 0.20 21 996.0
20210727004415 65 123 2.0 2.0 0.00 0.20 0.20 21 996.0
20210727003908 65 145 0.0 5.0 0.00 0.20 0.20 23 996.0
20210727003359 65 157 2.0 5.0 0.00 0.20 0.20 24 996.0
20210727002852 65 153 0.0 5.0 0.00 0.20 0.20 24 996.0
20210727002345 65 168 1.0 8.0 0.00 0.20 0.20 23 995.6
20210727001836 65 225 5.0 8.0 0.00 0.20 0.20 22 996.0
20210727001329 65 208 3.0 5.0 0.00 0.20 0.20 22 996.0
20210727000821 65 152 2.0 8.0 0.00 0.20 0.20 22 996.0
20210727000313 66 166 0.0 8.0 0.00 0.20 0.20 21 996.0
20210726235805 66 155 0.0 5.0 0.00 0.20 0.20 21 995.6
20210726235258 66 178 0.0 2.0 0.00 0.20 0.20 21 996.0
20210726234749 66 165 1.0 5.0 0.00 0.20 0.20 21 995.6
20210726234242 66 159 3.0 8.0 0.00 0.20 0.20 20 996.0
20210726233734 66 133 1.0 8.0 0.00 0.20 0.20 20 995.6
20210726233227 65 185 4.0 5.0 0.00 0.20 0.20 21 995.6
20210726232718 65 123 3.0 8.0 0.00 0.20 0.20 21 995.6
20210726232211 65 148 2.0 8.0 0.00 0.20 0.20 24 995.6
20210726231703 65 130 2.0 5.0 0.00 0.20 0.20 25 995.6
20210726231154 64 151 0.0 5.0 0.00 0.20 0.20 26 995.6
20210726230647 64 144 0.0 2.0 0.00 0.20 0.20 28 995.6
20210726230139 63 168 0.0 2.0 0.00 0.20 0.20 29 996.0
20210726225632 62 195 0.0 5.0 0.00 0.20 0.20 30 996.0
20210726225123 62 152 0.0 5.0 0.00 0.20 0.20 28 995.6
20210726224615 62 162 0.0 5.0 0.06 0.20 0.20 30 996.0
20210726224108 62 144 3.0 5.0 0.10 0.20 0.20 28 995.6
20210726223559 62 130 2.0 8.0 0.11 0.20 0.20 28 995.6
20210726223052 63 118 5.0 8.0 0.11 0.20 0.20 27 996.0
20210726222544 64 163 4.0 8.0 0.11 0.20 0.20 27 995.3
20210726222036 64 134 4.0 5.0 0.11 0.20 0.20 28 995.6
20210726221529 63 113 2.0 5.0 0.11 0.20 0.20 28 995.3
20210726221021 63 136 3.0 8.0 0.11 0.20 0.20 25 995.6
20210726220513 63 120 0.0 8.0 0.11 0.20 0.20 24 996.0
20210726220005 63 119 3.0 8.0 0.11 0.20 0.20 23 995.6
20210726215458 63 150 0.0 10.0 0.11 0.20 0.20 24 996.3
20210726214950 63 82 7.0 13.0 0.10 0.19 0.19 22 996.3
20210726214442 64 85 8.0 17.0 0.04 0.13 0.13 20 996.3
20210726213934 66 41 10.0 17.0 0.00 0.09 0.09 19 996.0
20210726213427 68 5 6.0 15.0 0.03 0.09 0.09 15 996.3
20210726212919 68 0 5.0 5.0 0.09 0.09 0.09 20 995.6
20210726212411 68 150 0.0 5.0 0.09 0.09 0.09 17 995.0
20210726211904 69 142 2.0 5.0 0.09 0.09 0.09 15 995.0
20210726211356 69 110 2.0 2.0 0.09 0.09 0.09 14 995.0
20210726210849 71 129 0.0 8.0 0.09 0.09 0.09 9 995.0
20210726210341 71 117 1.0 8.0 0.09 0.09 0.09 5 995.0
20210726205833 73 187 3.0 5.0 0.09 0.09 0.09 3 995.0
20210726205325 71 194 2.0 10.0 0.09 0.09 0.09 2 994.6
20210726204817 71 127 4.0 10.0 0.09 0.09 0.09 4 995.0
20210726204310 70 167 2.0 13.0 0.09 0.09 0.09 5 994.6
20210726203801 68 265 5.0 17.0 0.09 0.09 0.09 15 995.0
20210726203254 69 187 8.0 17.0 0.05 0.05 0.06 7 995.6
20210726202746 73 224 6.0 13.0 0.00 0.00 0.00 1 995.6
20210726202239 74 270 10.0 13.0 0.00 0.00 0.00 4 995.3
20210726201732 76 220 3.0 5.0 0.00 0.00 0.00 99 995.3
20210726201224 76 220 3.0 5.0 0.00 0.00 0.00 99 995.3
20210726200718 78 180 2.0 2.0 0.00 0.00 0.00 99 995.3
20210726200210 78 180 2.0 5.0 0.00 0.00 0.00 99 995.3
20210726195702 78 180 2.0 5.0 0.00 0.00 0.00 99 995.3
20210726195154 78 183 5.0 5.0 0.00 0.00 0.00 99 995.0
20210726194646 79 190 3.0 5.0 0.00 0.00 0.00 99 995.0
20210726194138 78 164 2.0 5.0 0.00 0.00 0.00 99 995.0
20210726193631 78 185 2.0 5.0 0.00 0.00 0.00 99 995.3
20210726193124 0 0.0 0.0 0.00 0.00 0.00 995.3
20210726192617 0 0.0 0.0 0.00 0.00 0.00 995.6
20210726192111 0 0.0 0.0 0.00 0.00 0.00 995.3
20210726191606 0 0.0 0.0 0.00 0.00 0.00 995.3
20210726191059 0 0.0 0.0 0.00 0.00 0.00 995.3
20210726190554 80 198 9.0 10.0 0.00 0.00 0.00 99 995.3
20210726190048 80 198 9.0 10.0 0.00 0.00 0.00 99 995.6
20210726185542 80 198 9.0 10.0 0.00 0.00 0.00 99 995.3
20210726185033 80 198 9.0 10.0 0.00 0.00 0.00 99 995.3
20210726184526 82 143 2.0 5.0 0.00 0.00 0.00 99 995.3
20210726184018 82 143 2.0 5.0 0.00 0.00 0.00 99 995.6
20210726183512 81 226 8.0 10.0 0.00 0.00 0.00 99 995.6
20210726183005 81 226 8.0 10.0 0.00 0.00 0.00 99 995.6
20210726182459 81 226 8.0 10.0 0.00 0.00 0.00 99 995.6
20210726181952 81 226 8.0 10.0 0.00 0.00 0.00 99 995.6
20210726181444 0 0.0 0.0 0.00 0.00 0.00 995.6
20210726180938 0 0.0 0.0 0.00 0.00 0.00 995.6
20210726180432 0 0.0 0.0 0.00 0.00 0.00 995.6
20210726175926 80 256 6.0 8.0 0.00 0.00 0.00 99 995.3
20210726175420 80 256 6.0 8.0 0.00 0.00 0.00 99 995.6
20210726174913 80 256 6.0 15.0 0.00 0.00 0.00 99 995.6
20210726174405 80 256 6.0 15.0 0.00 0.00 0.00 99 995.6
20210726173858 80 179 11.0 15.0 0.00 0.00 0.00 99 995.6
20210726173351 79 278 7.0 15.0 0.00 0.00 0.00 99 995.6
20210726172843 79 278 7.0 15.0 0.00 0.00 0.00 99 995.6
20210726172336 79 158 12.0 15.0 0.00 0.00 0.00 99 995.6
20210726171829 79 260 6.0 8.0 0.00 0.00 0.00 99 995.6
20210726171322 79 260 6.0 10.0 0.00 0.00 0.00 99 995.6
20210726170814 79 260 6.0 10.0 0.00 0.00 0.00 99 995.6
20210726170306 80 276 6.0 10.0 0.00 0.00 0.00 99 995.6
20210726165759 80 276 6.0 10.0 0.00 0.00 0.00 99 995.6
20210726165253 0 0.0 0.0 0.00 0.00 0.00 995.6
20210726164746 80 256 9.0 10.0 0.00 0.00 0.00 99 995.6
20210726164241 80 256 9.0 10.0 0.00 0.00 0.00 99 995.6
20210726163735 80 256 9.0 10.0 0.00 0.00 0.00 99 995.6
20210726163226 80 256 9.0 10.0 0.00 0.00 0.00 99 995.3
20210726162719 0 0.0 0.0 0.00 0.00 0.00 995.6
20210726162214 0 0.0 0.0 0.00 0.00 0.00 995.3
20210726161708 0 0.0 0.0 0.00 0.00 0.00 995.6
20210726161201 0 0.0 0.0 0.00 0.00 0.00 995.3
20210726160656 0 0.0 0.0 0.00 0.00 0.00 995.6
20210726160150 0 0.0 0.0 0.00 0.00 0.00 995.3
20210726155645 0 0.0 0.0 0.00 0.00 0.00 995.6
20210726155138 77 232 13.0 15.0 0.00 0.00 0.00 99 995.6
20210726154633 77 232 13.0 15.0 0.00 0.00 0.00 99 995.6
20210726154124 77 232 13.0 15.0 0.00 0.00 0.00 99 995.6
20210726153617 78 272 9.0 13.0 0.00 0.00 0.00 1 995.6
20210726153111 78 272 9.0 13.0 0.00 0.00 0.00 1 995.6
20210726152604 78 272 9.0 13.0 0.00 0.00 0.00 1 996.0
20210726152055 0 0.0 0.0 0.00 0.00 0.00 995.6
20210726151550 0 0.0 0.0 0.00 0.00 0.00 995.6
20210726151044 0 0.0 0.0 0.00 0.00 0.00 996.0
20210726150538 0 0.0 0.0 0.00 0.00 0.00 995.6
20210726150032 0 0.0 0.0 0.00 0.00 0.00 995.6
20210726145526 0 0.0 0.0 0.00 0.00 0.00 995.6
20210726145020 74 231 9.0 10.0 0.00 0.00 0.00 1 995.6
20210726144514 74 231 9.0 10.0 0.00 0.00 0.00 1 996.0
20210726144006 74 231 9.0 10.0 0.00 0.00 0.00 1 995.6
20210726143459 74 231 9.0 10.0 0.00 0.00 0.00 1 996.0
20210726142950 76 155 1.0 13.0 0.00 0.00 0.00 5 995.6
20210726142444 74 270 12.0 13.0 0.00 0.00 0.00 1 995.6
20210726141937 74 270 12.0 13.0 0.00 0.00 0.00 1 995.6
20210726141429 74 270 12.0 13.0 0.00 0.00 0.00 1 995.6
20210726140921 74 219 5.0 10.0 0.00 0.00 0.00 1 995.6
20210726140413 74 151 2.0 13.0 0.00 0.00 0.00 4 996.0
20210726135906 74 232 6.0 13.0 0.00 0.00 0.00 4 995.6
20210726135358 74 173 1.0 10.0 0.00 0.00 0.00 4 995.6
20210726134851 73 218 6.0 10.0 0.00 0.00 0.00 7 995.6
20210726134343 73 149 3.0 10.0 0.00 0.00 0.00 6 996.0
20210726133835 73 186 3.0 10.0 0.00 0.00 0.00 5 995.6
20210726133328 73 204 4.0 10.0 0.00 0.00 0.00 6 995.6
20210726132820 73 162 3.0 13.0 0.00 0.00 0.00 8 995.6
20210726132312 71 249 6.0 13.0 0.00 0.00 0.00 8 996.0
20210726131805 72 240 7.0 13.0 0.00 0.00 0.00 11 996.0
20210726131256 71 137 3.0 13.0 0.00 0.00 0.00 12 995.6
20210726130749 71 186 7.0 10.0 0.00 0.00 0.00 12 995.6
20210726130241 70 196 5.0 10.0 0.00 0.00 0.00 12 995.6
20210726125733 70 192 4.0 10.0 0.00 0.00 0.00 14 995.6
20210726125226 70 191 4.0 10.0 0.00 0.00 0.00 14 996.0
20210726124718 70 183 2.0 10.0 0.00 0.00 0.00 15 995.6
20210726124210 69 206 3.0 13.0 0.00 0.00 0.00 17 995.6
20210726123702 69 135 3.0 13.0 0.00 0.00 0.00 17 995.6
20210726123155 68 186 2.0 13.0 0.00 0.00 0.00 18 995.6
20210726122646 68 164 3.0 13.0 0.00 0.00 0.00 19 996.0
20210726122139 68 219 6.0 10.0 0.00 0.00 0.00 20 996.0
20210726121631 67 164 4.0 8.0 0.00 0.00 0.00 21 996.0
20210726121123 68 170 2.0 8.0 0.00 0.00 0.00 20 995.6
20210726120615 68 164 2.0 8.0 0.00 0.00 0.00 22 995.6
20210726120108 67 171 3.0 5.0 0.00 0.00 0.00 22 995.6
20210726115601 67 199 3.0 5.0 0.00 0.00 0.00 23 995.6
20210726115052 67 206 3.0 5.0 0.00 0.00 0.00 24 995.6
20210726114545 67 153 2.0 2.0 0.00 0.00 0.00 25 995.6
20210726114037 67 143 0.0 5.0 0.00 0.00 0.00 25 995.6
20210726113529 66 162 1.0 5.0 0.00 0.00 0.00 25 995.6
20210726113022 66 154 0.0 2.0 0.00 0.00 0.00 25 995.6
20210726112514 66 159 0.0 5.0 0.00 0.00 0.00 25 996.0
20210726112006 66 154 0.0 8.0 0.00 0.00 0.00 27 995.6
20210726111459 65 188 3.0 5.0 0.00 0.00 0.00 29 995.6
20210726110951 65 137 0.0 5.0 0.00 0.00 0.00 29 995.6
20210726110443 65 176 0.0 2.0 0.00 0.00 0.00 30 995.6
20210726105935 65 186 0.0 0.0 0.00 0.00 0.00 31 995.6
20210726105428 64 174 0.0 8.0 0.00 0.00 0.00 32 995.6
20210726104920 64 154 0.0 8.0 0.00 0.00 0.00 33 995.6
20210726104413 64 171 0.0 5.0 0.00 0.00 0.00 34 995.6
20210726103905 64 212 0.0 5.0 0.00 0.00 0.00 34 995.3
20210726103357 64 176 0.0 5.0 0.00 0.00 0.00 35 995.3
20210726102849 64 181 0.0 2.0 0.00 0.00 0.00 35 995.0
20210726102342 64 129 0.0 0.0 0.00 0.00 0.00 36 995.3
20210726101834 64 164 0.0 0.0 0.00 0.00 0.00 36 995.3
20210726101326 64 145 0.0 2.0 0.00 0.00 0.00 35 995.3
20210726100819 64 164 0.0 5.0 0.00 0.00 0.00 36 995.0
20210726100311 64 155 0.0 5.0 0.00 0.00 0.00 35 995.3
20210726095804 64 168 0.0 5.0 0.00 0.00 0.00 35 995.3
20210726095255 64 160 1.0 5.0 0.00 0.00 0.00 35 995.0
20210726094748 64 154 0.0 5.0 0.00 0.00 0.00 34 995.0
20210726094241 64 187 0.0 5.0 0.00 0.00 0.00 34 995.0
20210726093733 64 205 4.0 5.0 0.00 0.00 0.00 34 995.0
20210726093225 64 157 2.0 5.0 0.00 0.00 0.00 33 995.3
20210726092718 64 187 2.0 5.0 0.00 0.00 0.00 33 995.0
20210726092210 64 201 3.0 5.0 0.00 0.00 0.00 33 995.0
20210726091702 64 196 4.0 5.0 0.00 0.00 0.00 33 995.3
20210726091155 64 168 2.0 5.0 0.00 0.00 0.00 32 995.0
20210726090647 64 176 0.0 2.0 0.00 0.00 0.00 33 995.0
20210726090139 65 177 1.0 2.0 0.00 0.00 0.00 32 995.0
20210726085632 65 176 0.0 5.0 0.00 0.00 0.00 32 995.0
20210726085124 65 152 0.0 5.0 0.00 0.00 0.00 31 995.0
20210726084616 65 167 0.0 5.0 0.00 0.00 0.00 31 995.0
20210726084108 65 193 2.0 5.0 0.00 0.00 0.00 31 995.0
20210726083601 65 156 0.0 5.0 0.00 0.00 0.00 31 994.6
20210726083053 65 156 1.0 2.0 0.00 0.00 0.00 31 995.0
20210726082545 65 179 0.0 2.0 0.00 0.00 0.00 30 994.6
20210726082038 65 167 0.0 5.0 0.00 0.00 0.00 30 994.6
20210726081530 65 183 0.0 5.0 0.00 0.00 0.00 30 995.0
20210726081023 65 161 1.0 5.0 0.00 0.00 0.00 29 994.6
20210726080515 65 160 0.0 5.0 0.00 0.00 0.00 29 994.6
20210726080007 65 166 0.0 2.0 0.00 0.00 0.00 29 994.6
20210726075500 65 144 0.0 2.0 0.00 0.00 0.00 28 994.6
20210726074952 66 156 0.0 5.0 0.00 0.00 0.00 28 994.6
20210726074444 66 154 0.0 5.0 0.00 0.00 0.00 27 994.6
20210726073937 66 153 0.0 5.0 0.00 0.00 0.00 27 994.6